Location: Boiro
(42.6475°N, 8.8834°W)
Time: 03:49:20
(UTC+01:00)

Vanguard 1 Rocket - Pass Details

Date: 13 December 2021
Orbit: 651 x 4224 km, 34.3° (Epoch: 21 January)

Event Time Altitude Azimuth Distance (km) Brightness Sun altitude
Rises 08:28:38 0° 275° (W) 5,762 - -5.4°
Exits shadow 08:29:06 - 274° (W) 5,689 10.9 -5.4°
Reaches altitude 10° 08:32:40 10° 264° (W) 5,229 10.8 -4.8°
Maximum altitude 08:45:35 28° 213° (SSW) 5,078 11.2 -2.7°
Drops below altitude 10° 09:03:53 10° 166° (SSE) 7,359 12.8 0.2°
Sets 09:11:26 0° 156° (SSE) 8,456 13.5 1.4°
